Home   Weather   Castries   Past weeks

Flag for Saint Lucia Past Weather in Castries, Saint Lucia — Yesterday and Last 2 Weeks

Now
81 °F

Passing clouds.


Feels Like: 85 °F
Forecast: 81 / 86 °F
Wind: 8 mph from East

Location: Vigie

Current Time: Apr 24, 2017 at 8:44:27 pm

Latest Report: Apr 24, 2017 at 8:00 pm


Visibility: N/A

Pressure: 29.92 "Hg

Humidity: 79%

Dew Point: 73 °F

Location of CastriesLocation

Past Weather in Castries — Graph

°F

Castries Temperature Yesterday

Maximum temperature yesterday: 86 °F (at 10:00 am)
Minimum temperature yesterday: 79 °F (at 6:00 am)
Average temperature yesterday: 83 °F

High & Low Weather Summary for the Past Weeks

 TemperatureHumidityPressure
High90 °F (Apr 18, 2:00 pm)94% (Apr 19, 8:00 am)30.01 "Hg (Apr 19, 8:00 am)
Low75 °F (Apr 19, 11:00 am)46% (Apr 10, 11:00 am)29.86 "Hg (Apr 12, 3:00 pm)
Average83 °F70%29.94 "Hg
* Reported Apr 9 7:00 pm — Apr 24 7:00 pm, Castries, Weather by CustomWeather, © 2017

Note: Actual official high and low records may vary slightly from our data, if they occured in-between our weather recording intervals... More about our weather records

Advertising

Castries Weather History for the Previous 24 Hours

Scroll right to see more
 ConditionsComfort  
Time TempWeatherWind HumidityBarometerVisibility
7:00 pm
Mon, Apr 24
81 °FPassing clouds.9 mph79%29.92 "HgN/A
6:00 pm82 °FPassing clouds.14 mph74%29.89 "HgN/A
5:00 pm84 °FPassing clouds.14 mph70%29.89 "HgN/A
4:00 pm86 °FPassing clouds.14 mph62%29.89 "HgN/A
3:00 pm86 °FPassing clouds.15 mph62%29.92 "HgN/A
2:00 pm88 °FPassing clouds.13 mph59%29.92 "HgN/A
1:00 pm88 °FPassing clouds.12 mph59%29.95 "HgN/A
12:00 pm88 °FPassing clouds.10 mph59%29.98 "HgN/A
11:00 am88 °FPassing clouds.10 mph59%29.98 "HgN/A
10:00 am88 °FPassing clouds.13 mph62%30.01 "HgN/A
9:00 am84 °FPassing clouds.12 mph66%30.01 "HgN/A
8:00 am84 °FPassing clouds.6 mph70%30.01 "HgN/A
7:00 am81 °FPassing clouds.5 mph79%29.98 "HgN/A
6:00 am79 °FPassing clouds.6 mph79%29.95 "HgN/A
9:00 pm
Sun, Apr 23
81 °FSprinkles. Passing clouds.14 mph79%29.95 "HgN/A
8:00 pm81 °FSprinkles. Passing clouds.10 mph79%29.95 "HgN/A
Weather by CustomWeather, © 2017

See weather overviewHow to use our weather pages